CW2969 Weather Reports


time (UTC)temp
C
wind
direction
speed
KPH
gust
KPH
rain 1hr
cm
rain 24hr
cm
rain mn
cm
humidity
%
barometer
mb
20220930160012 23 107 6.4 6.4 0.00 0.00 0.00 40 1018.1
20220930155009 23 263 1.6 3.2 0.00 0.00 0.00 41 1018.2
20220930154009 23 96 0.0 11.3 0.00 0.00 0.00 40 1018.3
20220930153009 22 128 0.0 3.2 0.00 0.00 0.00 41 1018.3
20220930152009 22 120 0.0 1.6 0.00 0.00 0.00 41 1018.2
20220930150009 21 304 1.6 3.2 0.00 0.00 0.00 44 1018.3
20220930145008 21 121 1.6 4.8 0.00 0.00 0.00 43 1018.3
20220930143008 21 194 1.6 1.6 0.00 0.00 0.00 48 1018.2
20220930141008 20 103 0.0 0.0 0.00 0.00 0.00 53 1018.3
20220930140007 19 91 0.0 0.0 0.00 0.00 0.00 55 1018.2
20220930134007 17 32 0.0 1.6 0.00 0.00 0.00 61 1018.1
20220930133007 16 329 0.0 0.0 0.00 0.00 0.00 68 1018.1
20220930131007 13 53 0.0 0.0 0.00 0.00 0.00 75 1017.9
20220930125006 13 53 0.0 0.0 0.00 0.00 0.00 75 1018.0
20220930124006 13 46 0.0 0.0 0.00 0.00 0.00 74 1017.9
20220930123006 13 46 0.0 0.0 0.00 0.00 0.00 74 1017.9
20220930120006 15 46 0.0 0.0 0.00 0.00 0.00 71 1017.8
20220930115006 15 46 0.0 0.0 0.00 0.00 0.00 70 1018.0
20220930112006 16 46 0.0 0.0 0.00 0.00 0.00 66 1018.0
20220930110005 16 46 0.0 0.0 0.00 0.00 0.00 64 1018.0
20220930105005 16 16 0.0 0.0 0.00 0.00 0.00 63 1018.0
20220930104005 17 16 0.0 0.0 0.00 0.00 0.00 62 1018.1
20220930102005 17 104 0.0 0.0 0.00 0.00 0.00 62 1018.0
20220930101005 17 105 0.0 0.0 0.00 0.00 0.00 64 1017.9
20220930100005 17 78 0.0 0.0 0.00 0.00 0.00 64 1018.0
20220930095004 17 82 0.0 0.0 0.00 0.00 0.00 64 1017.8
20220930094004 17 93 0.0 0.0 0.00 0.00 0.00 64 1017.8
20220930092004 17 111 0.0 4.8 0.00 0.00 0.00 66 1017.7
20220930091004 17 81 0.0 0.0 0.00 0.00 0.00 67 1017.6
20220930090004 17 41 0.0 0.0 0.00 0.00 0.00 68 1017.6
20220930085004 17 42 0.0 0.0 0.00 0.00 0.00 68 1017.6
20220930084004 17 42 0.0 0.0 0.00 0.00 0.00 68 1017.6
20220930083004 17 44 0.0 0.0 0.00 0.00 0.00 68 1017.7
20220930082004 17 44 0.0 0.0 0.00 0.00 0.00 68 1017.6
20220930081004 18 73 0.0 0.0 0.00 0.00 0.00 67 1017.7
20220930075003 18 73 0.0 0.0 0.00 0.00 0.00 65 1017.8
20220930073003 18 85 1.6 1.6 0.00 0.00 0.00 66 1017.8
20220930072003 18 99 0.0 0.0 0.00 0.00 0.00 66 1017.6
20220930071003 18 99 0.0 0.0 0.00 0.00 0.00 65 1017.6
20220930070003 18 99 0.0 0.0 0.00 0.00 0.00 65 1017.5
20220930065003 18 117 0.0 0.0 0.00 0.00 0.00 64 1017.5
20220930063002 19 117 0.0 0.0 0.00 0.00 0.00 61 1017.8
20220930062002 20 117 0.0 0.0 0.00 0.00 0.00 60 1017.6
20220930060002 21 117 0.0 0.0 0.00 0.00 0.00 56 1017.7
20220930055002 21 117 0.0 0.0 0.00 0.00 0.00 54 1017.6
20220930053002 22 117 0.0 1.6 0.00 0.00 0.00 51 1017.7
20220930052002 22 117 0.0 0.0 0.00 0.00 0.00 49 1017.7
20220930051002 22 112 3.2 3.2 0.00 0.00 0.00 49 1017.7
20220930045031 23 153 0.0 4.8 0.00 0.00 0.00 46 1017.8
20220930044031 23 108 0.0 0.0 0.00 0.00 0.00 46 1017.8
20220930041031 25 146 0.0 4.8 0.00 0.00 0.00 42 1017.7
20220930040030 25 140 1.6 1.6 0.00 0.00 0.00 42 1017.8
20220930035030 25 126 0.0 3.2 0.00 0.00 0.00 42 1017.7
20220930034030 25 100 0.0 6.4 0.00 0.00 0.00 42 1017.8
20220930033030 25 159 0.0 3.2 0.00 0.00 0.00 43 1017.8
20220930032030 24 127 1.6 8.0 0.00 0.00 0.00 44 1017.6
20220930031030 24 132 0.0 0.0 0.00 0.00 0.00 45 1017.6
20220930030030 23 152 0.0 1.6 0.00 0.00 0.00 46 1017.6
20220930024030 23 155 0.0 1.6 0.00 0.00 0.00 48 1017.3
20220930023030 24 155 0.0 0.0 0.00 0.00 0.00 46 1017.2
20220930014030 23 194 0.0 0.0 0.00 0.00 0.00 49 1016.6
20220930012029 24 195 1.6 3.2 0.00 0.00 0.00 46 1016.1
20220930011029 25 172 0.0 0.0 0.00 0.00 0.00 44 1016.2
20220930010029 26 165 0.0 1.6 0.00 0.00 0.00 41 1016.2
20220930005028 27 157 1.6 3.2 0.00 0.00 0.00 39 1016.0
20220930003030 29 153 1.6 1.6 0.00 0.00 0.00 36 1016.0
20220930002028 30 130 0.0 0.0 0.00 0.00 0.00 32 1015.9
20220930001028 31 130 0.0 1.6 0.00 0.00 0.00 31 1016.1
20220929235027 32 133 0.0 0.0 0.00 0.00 0.00 31 1016.1
20220929225027 33 202 0.0 3.2 0.00 0.00 0.00 26 1016.5
20220929220026 32 317 1.6 1.6 0.00 0.00 0.00 27 1016.9
20220929215026 32 99 3.2 9.7 0.00 0.00 0.00 26 1017.0
20220929214026 33 348 0.0 3.2 0.00 0.00 0.00 26 1017.2
20220929213026 33 55 0.0 1.6 0.00 0.00 0.00 26 1017.2
20220929212026 33 99 1.6 4.8 0.00 0.00 0.00 25 1017.3
20220929211026 33 325 3.2 3.2 0.00 0.00 0.00 26 1017.5
20220929210025 33 226 0.0 1.6 0.00 0.00 0.00 26 1017.5
20220929205025 33 98 1.6 3.2 0.00 0.00 0.00 26 1017.7
20220929204026 33 348 6.4 6.4 0.00 0.00 0.00 26 1017.8
20220929203025 32 101 3.2 3.2 0.00 0.00 0.00 27 1018.0
20220929202025 32 148 0.0 3.2 0.00 0.00 0.00 27 1018.2
20220929201025 32 122 3.2 6.4 0.00 0.00 0.00 27 1018.2
20220929200025 32 40 1.6 4.8 0.00 0.00 0.00 27 1018.5
20220929195025 33 71 1.6 4.8 0.00 0.00 0.00 27 1018.7
20220929194024 32 103 3.2 9.7 0.00 0.00 0.00 26 1019.0
20220929190024 31 355 3.2 6.4 0.00 0.00 0.00 28 1019.8
20220929185024 31 251 0.0 1.6 0.00 0.00 0.00 28 1020.1
20220929184024 32 61 0.0 4.8 0.00 0.00 0.00 27 1020.4
20220929182024 31 10 1.6 14.5 0.00 0.00 0.00 28 1020.8
20220929175023 30 203 1.6 4.8 0.00 0.00 0.00 35 1021.3
20220929173023 29 346 1.6 1.6 0.00 0.00 0.00 37 1021.6
20220929170022 28 216 0.0 1.6 0.00 0.00 0.00 39 1022.1
20220929165022 28 336 6.4 8.0 0.00 0.00 0.00 38 1022.3
20220929164024 28 130 3.2 4.8 0.00 0.00 0.00 39 1022.5
20220929163022 28 162 3.2 6.4 0.00 0.00 0.00 40 1022.6
20220929161022 27 221 3.2 6.4 0.00 0.00 0.00 40 1022.9